Location: Sevilla
(37.3933°N, 5.9839°W)
Time: 04:06:17
(UTC+02:00)

Transit 2A Rocket - Pass Details

Date: 29 June 2024
Orbit: 582 x 910 km, 66.7° (Epoch: 15 July)

Event Time Altitude Azimuth Distance (km) Brightness Sun altitude
Rises 06:44:22 0° 325° (NW) 3,539 8.4 -4.5°
Reaches altitude 10° 06:47:00 10° 319° (NW) 2,600 7.7 -4.1°
Maximum altitude 06:52:44 44° 250° (WSW) 1,233 5.7 -3.1°
Drops below altitude 10° 06:58:17 10° 180° (S) 2,519 7.4 -2.2°
Sets 07:00:48 0° 173° (S) 3,417 8.1 -1.7°
